Location: Unspecified
(0.0000°N, 0.0000°E)
Time: 05:34:24
(UTC+00:00)

Tiros 1 despin weight - Pass Details

Date: 09 October 2020
Orbit: 594 x 641 km, 48.2° (Epoch: 28 October)

Event Time Altitude Azimuth Distance (km) Brightness Sun altitude
Rises 15:21:45 0° 345° (NNW) 2,891 ? 36.1°
Reaches altitude 10° 15:24:30 10° 1° (N) 1,996 ? 35.4°
Maximum altitude 15:28:01 21° 51° (NE) 1,402 ? 34.5°
Drops below altitude 10° 15:31:34 10° 100° (E) 2,018 ? 33.6°
Sets 15:34:21 0° 116° (ESE) 2,933 ? 32.9°
